Location: Newark
(9.4667°S, 159.8167°E)
Time: 21:01:14
(UTC+00:00)

Courier 1B Rocket - Pass Details

Date: 21 November 2019
Orbit: 920 x 1202 km, 28.2° (Epoch: 14 December)

Event Time Altitude Azimuth Distance (km) Brightness Sun altitude
Rises 09:25:31 0° 337° (NNW) 4,067 8.2 -28.2°
Enters shadow 09:27:51 - 347° (NNW) 3,543 7.8 -28.7°
Reaches altitude 10° 09:30:17 10° 2° (N) 3,120 - -29.2°
Maximum altitude 09:33:45 13° 29° (NNE) 2,867 - -30.0°
Drops below altitude 10° 09:37:13 10° 55° (NE) 3,111 - -30.7°
Sets 09:41:55 0° 80° (E) 4,046 - -31.7°
